Location: Asheville, NC
(35.6000°N, 82.5500°W)
Time: 22:43:23
(UTC-04:00)

Hubble Space Telescope - Pass Details

Date: 10 October 2017
Orbit: 537 x 541 km, 28.5° (Epoch: 20 October)

Event Time Altitude Azimuth Distance (km) Brightness Sun altitude
Exits shadow 06:43:39 - 233° (SW) 1,847 3.0 -10.8°
Reaches altitude 10° 06:43:58 10° 230° (SW) 1,784 3.0 -10.7°
Maximum altitude 06:45:58 13° 200° (SSW) 1,583 3.0 -10.3°
Drops below altitude 10° 06:47:59 10° 171° (S) 1,782 3.6 -9.9°
Sets 06:51:15 0° 144° (SE) 2,671 4.9 -9.2°
